HUBBLE
1 20580U 90037B 08163.88919472 .00000243 00000-0 59602-5 0 01561
2 20580 028.4691 357.7789 0003451 326.0892 033.9476 15.00384978794182
PO-34
1 25520U 98064B 08163.53955548 .00000362 00000-0 80323-5 0 132
2 25520 028.4597 216.5901 0005668 221.6284 138.3876 15.17200016532307
ISS
1 25544U 98067A 08163.84755287 .00000206 00000-0 53030-5 0 06489
2 25544 051.6402 043.9198 0005684 321.9601 133.8438 15.76737382547688
CO-58
1 28895U 05043F 08163.70506987 -.00000045 00000-0 23526-6 0 00449
2 28895 098.0994 057.8347 0018966 068.6168 291.7051 14.59674668139680
NCUBE2
1 28897U 05043H 08163.25899404 .00000096 00000-0 29665-4 0 05741
2 28897 098.0977 057.3301 0018426 069.4056 290.9120 14.59845549131907
FCAL
1 29667U 06055J 08146.34060426 .11864717 12752-4 73624-4 0 9790
2 29667 051.6107 065.3702 0009039 260.8350 099.5042 16.53464210 82911
FALCON
1 30776U 07006E 08163.52945353 .00000155 00000-0 14344-4 0 03401
2 30776 035.4336 187.8078 0001891 329.3662 030.6943 15.03001712069299
MAST
1 31126U 07012K 08163.66491756 .00000024 00000-0 16334-4 0 03491
2 31126 098.0377 228.3181 0094936 349.8340 010.0913 14.53427304061213
CAPE1
1 31130U 07012P 08163.61015881 .00000076 00000-0 28674-4 0 03286
2 31130 098.0404 227.2881 0102708 352.8084 007.1639 14.51968039060911
CUTE1-7
1 32785U 08021C 08164.72894561 -.00000077 00000-0 -30115-5 0 742
2 32785 097.9912 224.6595 0015388 146.6951 213.5232 14.81364940 6749
COMPASS
1 32787U 08021E 08164.32218107 .00000093 00000-0 18784-4 0 648
2 32787 097.9880 224.2300 0016460 150.0603 210.1557 14.81418115 6680
AAUSAT2
1 32788U 08021F 08163.57597459 .00000184 00000-0 30310-4 0 00678
2 32788 097.9899 223.4948 0016157 151.0195 209.1925 14.81526884006578
DO-64
1 32789U 08021G 08164.72817617 .00000290 00000-0 43914-4 0 737
2 32789 097.9909 224.6497 0016291 147.3355 212.8867 14.81403320 6742
SEEDS
1 32791U 08021J 08164.79925942 .00000019 00000-0 93763-5 0 623
2 32791 097.9934 224.7148 0016487 145.5468 214.6806 14.81277713 6725
CANX-2
1 32797U 08021L 08163.10790743 .00002234 00000-0 28956-3 0 274
2 32797 097.9937 223.0604 0018095 155.5662 241.6189 14.81708995 5181
